[[{"header":{"parameterUnit":"m.s-1","parameterCategory":1,"la1":30.2991,"la2":30.254,"lo1":-89.0895,"lo2":-89.0444,"dy":0.0017,"dx":0.0017,"nx":28,"ny":28,"refTime":"2025-04-29T09:00:00:Z","depth":0,"parameterNumber":2,"parameterNumberName":"U-component_of_WINDS"},"data":[0,0,0,0,0,0,0,0,0,0,0,0,0,0,0,0,0,0,0,0,0,0,0,0,0,0,0,0,0,0,0,0,0,0,0,0,0,0,0,0,0,0,0,0,0,0,0,0,0,0,0,0,0,0,0,0,0,0,-1.4008,-1.4008,0,-1.4003,-1.4003,-1.4003,-1.3973,-1.3972,-1.3971,-1.397,-1.3966,-1.3967,-1.3967,0,0,0,0,0,0,0,0,0,0,0,0,0,-1.3994,-1.3994,-1.4008,-1.4008,-1.4008,-1.4003,-1.4003,-1.4003,-1.3973,-1.3972,-1.3971,-1.397,-1.3966,-1.3967,-1.3967,0,0,0,0,0,0,0,0,0,0,0,0,0,-1.3995,-1.3994,-1.4008,-1.3992,-1.3991,-1.4003,-1.4003,-1.4003,-1.3973,-1.3972,-1.3971,-1.397,-1.3966,-1.3967,-1.3967,-1.3994,0,0,-1.397,-1.397,0,0,0,0,0,0,0,0,-1.3995,-1.3996,-1.3995,-1.3993,-1.3992,-1.3987,-1.3996,-1.4,-1.3973,-1.398,-1.397,-1.3969,-1.3974,-1.3974,-1.3976,-1.3994,-1.3994,-1.397,-1.3971,-1.3971,-1.3971,0,0,0,0,0,0,0,-1.3995,-1.3996,-1.4006,-1.3995,-1.3993,-1.3986,-1.3985,-1.3997,-1.3983,-1.3979,-1.3977,-1.3977,-1.3973,-1.3975,-1.3975,-1.3994,-1.397,-1.3971,-1.3971,-1.3972,-1.4035,-1.4036,0,0,0,0,0,0,-1.3997,-1.3996,-1.4006,-1.4006,-1.3991,-1.3987,-1.3986,-1.399,-1.3983,-1.3981,-1.3978,-1.3975,-1.3974,-1.3974,-1.3975,-1.4006,-1.3971,-1.3972,-1.3972,-1.4034,-1.4035,-1.4037,0,0,0,0,0,0,-1.3997,-1.3998,-1.4006,-1.4,-1.4001,-1.3989,-1.3993,-1.399,-1.3992,-1.3982,-1.3979,-1.3982,-1.3973,-1.3974,-1.399,-1.4006,-1.3972,-1.3973,-1.4033,-1.4034,-1.4036,-1.407,0,0,0,0,0,0,-1.3997,-1.3998,-1.4008,-1.4001,-1.4001,-1.4021,-1.3994,-1.3991,-1.3993,-1.399,-1.3985,-1.3983,-1.3972,-1.3989,-1.3991,-1.4006,-1.3973,-1.4031,-1.4033,-1.4036,-1.4067,-1.4072,-1.4077,0,0,0,0,0,-1.3996,-1.4018,-1.4009,-1.401,-1.4013,-1.4022,-1.4022,-1.4009,-1.3995,-1.4005,-1.3998,-1.3983,-1.4004,-1.3991,-1.3993,-1.4009,-1.403,-1.4033,-1.4035,-1.4065,-1.4071,-1.4077,0,0,0,0,0,0,-1.4028,-1.4017,-1.4006,-1.4026,-1.4025,-1.4017,-1.4029,-1.4016,-1.402,-1.4017,-1.4,-1.4,-1.4018,-1.4015,-1.4001,-1.4035,-1.4014,-1.4018,-1.4036,-1.4042,-1.4047,-1.4047,-1.3974,0,0,0,0,0,-1.4037,-1.4045,-1.4035,-1.4053,-1.4053,-1.4041,-1.4045,-1.4035,-1.4033,-1.4033,-1.4027,-1.4027,-1.4033,-1.4037,-1.4043,-1.4067,-1.4065,-1.4079,-1.4084,-1.4088,-1.4091,-1.4103,-1.4109,-1.4045,-1.4045,-1.4045,0,0,-1.4056,-1.4051,-1.4057,-1.4059,-1.4057,-1.4066,-1.4041,-1.4051,-1.4058,-1.4034,-1.4049,-1.4045,-1.4043,-1.4064,-1.4072,-1.4062,-1.4108,-1.4091,-1.4094,-1.4095,-1.4107,-1.4113,-1.4118,-1.4047,-1.4047,-1.4047,0,0,-1.4095,-1.4092,-1.4107,-1.4106,-1.4103,-1.4095,-1.4099,-1.4093,-1.4089,-1.4104,-1.4086,-1.4094,-1.4105,-1.4105,-1.4106,-1.4147,-1.4133,-1.4149,-1.4174,-1.4187,-1.4192,-1.4196,-1.4211,-1.4216,-1.4152,-1.4152,-1.4152,0,-1.412,-1.4132,-1.4117,-1.4128,-1.413,-1.4109,-1.4125,-1.4124,-1.4124,-1.4126,-1.4114,-1.4128,-1.4125,-1.4145,-1.4155,-1.4157,-1.4161,-1.4149,-1.4192,-1.4197,-1.4201,-1.4214,-1.422,-1.4154,-1.4154,-1.4153,-1.4153,0,-1.4162,-1.417,-1.4183,-1.4183,-1.4186,-1.42,-1.4188,-1.4193,-1.4183,-1.4176,-1.4192,-1.4188,-1.4192,-1.4197,-1.4187,-1.4215,-1.4209,-1.4195,-1.4174,-1.4209,-1.4221,-1.4227,-1.4157,-1.4156,-1.4155,-1.4155,0,0,-1.422,-1.4212,-1.4217,-1.4217,-1.4212,-1.4219,-1.4232,-1.4236,-1.4241,-1.4242,-1.4252,-1.4263,-1.425,-1.4251,-1.4242,-1.4253,-1.4285,-1.4238,-1.4237,-1.4247,-1.4317,-1.4327,-1.4334,-1.4276,-1.4277,-1.4278,-1.4317,0,-1.4258,-1.4279,-1.4266,-1.4289,-1.4298,-1.4278,-1.4289,-1.4289,-1.4283,-1.429,-1.4284,-1.4291,-1.4274,-1.4275,-1.4285,-1.4279,-1.4299,-1.4276,-1.4287,-1.4287,-1.4287,-1.434,-1.4351,-1.4388,-1.4322,-1.4323,-1.4323,0,-1.4304,-1.4307,-1.4331,-1.4325,-1.4328,-1.4339,-1.4342,-1.4348,-1.4347,-1.4342,-1.4344,-1.4332,-1.4345,-1.4324,-1.4342,-1.4327,-1.433,-1.4328,-1.433,-1.433,-1.4307,-1.4342,-1.4399,-1.4405,-1.4331,-1.433,-1.433,0,-1.4345,-1.4354,-1.437,-1.437,-1.4364,-1.4372,-1.437,-1.4368,-1.4371,-1.4374,-1.4376,-1.4381,-1.4383,-1.4387,-1.4377,-1.4363,-1.4396,-1.4375,-1.4393,-1.4393,-1.44,-1.44,-1.4459,-1.4403,-1.4403,-1.4403,-1.4403,0,-1.4388,-1.4404,-1.4388,-1.4397,-1.4414,-1.44,-1.4418,-1.4414,-1.4412,-1.4421,-1.4404,-1.4413,-1.4399,-1.4406,-1.4398,-1.4414,-1.4416,-1.4413,-1.441,-1.4414,-1.4414,-1.4416,-1.4413,-1.4404,-1.4404,-1.4404,-1.4403,0,-1.4436,-1.4426,-1.4442,-1.4435,-1.4434,-1.4447,-1.4441,-1.445,-1.4443,-1.4455,-1.4457,-1.4447,-1.4455,-1.4445,-1.4452,-1.4447,-1.4469,-1.4463,-1.4469,-1.4468,-1.4486,-1.4485,-1.4549,-1.4556,-1.4495,-1.4496,-1.4496,0,-1.4465,-1.4476,-1.4471,-1.4475,-1.4474,-1.4482,-1.4485,-1.4472,-1.4476,-1.4476,-1.4485,-1.4492,-1.4496,-1.451,-1.4504,-1.451,-1.4504,-1.4525,-1.4504,-1.4508,-1.4504,-1.4503,-1.4505,-1.453,-1.4531,-1.4531,-1.4532,0,-1.4516,-1.4511,-1.4516,-1.452,-1.4524,-1.4526,-1.4528,-1.4533,-1.4519,-1.4525,-1.4532,-1.4536,-1.4543,-1.455,-1.4554,-1.4553,-1.454,-1.4538,-1.4543,-1.4547,-1.455,-1.4549,-1.4481,-1.4537,-1.4536,-1.4536,-1.4536,-1.4536,-1.4555,-1.4565,-1.4562,-1.4569,-1.4568,-1.457,-1.4578,-1.4573,-1.4579,-1.4584,-1.4576,-1.4586,-1.4585,-1.4589,-1.4589,-1.4597,-1.4587,-1.4594,-1.4596,-1.4597,-1.46,-1.4549,-1.4597,-1.4597,-1.4597,-1.4597,-1.4597,0,-1.4606,-1.4604,-1.461,-1.4612,-1.4617,-1.4605,-1.4605,-1.4611,-1.462,-1.462,-1.4625,-1.4634,-1.4641,-1.4635,-1.4641,-1.4649,-1.4643,-1.4651,-1.465,-1.465,-1.4608,-1.4604,-1.4655,-1.4655,-1.4655,-1.4655,-1.4655,-1.4655,-1.4633,-1.4649,-1.4643,-1.4658,-1.4655,-1.4665,-1.4666,-1.4668,-1.4668,-1.4679,-1.4684,-1.4681,-1.4679,-1.4684,-1.469,-1.4688,-1.4691,-1.4701,-1.4697,-1.4658,-1.4653,-1.4647,-1.4643,-1.4702,-1.4702,-1.4738,-1.4739,-1.4739]},{"header":{"parameterUnit":"m.s-1","parameterCategory":1,"la1":30.2991,"la2":30.254,"lo1":-89.0895,"lo2":-89.0444,"dy":0.0017,"dx":0.0017,"nx":28,"ny":28,"refTime":"2025-04-29T09:00:00:Z","depth":0,"parameterNumber":3,"parameterNumberName":"V-component_of_WINDS"},"data":[0,0,0,0,0,0,0,0,0,0,0,0,0,0,0,0,0,0,0,0,0,0,0,0,0,0,0,0,0,0,0,0,0,0,0,0,0,0,0,0,0,0,0,0,0,0,0,0,0,0,0,0,0,0,0,0,0,0,4.2893,4.2893,0,4.2882,4.2882,4.2882,4.2814,4.2812,4.281,4.2809,4.2799,4.28,4.2801,0,0,0,0,0,0,0,0,0,0,0,0,0,4.2856,4.2857,4.2893,4.2893,4.2893,4.2882,4.2882,4.2882,4.2814,4.2812,4.281,4.2808,4.2798,4.28,4.2801,0,0,0,0,0,0,0,0,0,0,0,0,0,4.2861,4.2857,4.2893,4.2857,4.2854,4.2882,4.2882,4.2882,4.2814,4.2812,4.2809,4.2807,4.2798,4.28,4.2801,4.2863,0,0,4.2807,4.2808,0,0,0,0,0,0,0,0,4.2861,4.2862,4.2863,4.286,4.2856,4.2847,4.2865,4.2875,4.2815,4.283,4.2809,4.2806,4.2817,4.2817,4.282,4.2862,4.2862,4.2807,4.2809,4.2809,4.281,0,0,0,0,0,0,0,4.2861,4.2863,4.2888,4.2863,4.2859,4.2842,4.284,4.2866,4.2837,4.2828,4.2823,4.2823,4.2814,4.2819,4.282,4.2862,4.2807,4.2809,4.281,4.2811,4.2952,4.2954,0,0,0,0,0,0,4.2865,4.2863,4.2889,4.2888,4.2852,4.2845,4.2843,4.2852,4.2837,4.2832,4.2825,4.282,4.2817,4.2817,4.2819,4.2888,4.2809,4.2811,4.2812,4.2949,4.2952,4.2955,0,0,0,0,0,0,4.2864,4.2868,4.2889,4.2874,4.2875,4.2848,4.2859,4.2853,4.2857,4.2834,4.2829,4.2834,4.2815,4.2816,4.2852,4.2886,4.2812,4.2814,4.2946,4.295,4.2954,4.3027,0,0,0,0,0,0,4.2864,4.2868,4.2891,4.2875,4.2877,4.2922,4.2862,4.2855,4.2861,4.2854,4.2842,4.2837,4.2813,4.2849,4.2854,4.2888,4.2815,4.2943,4.2948,4.2952,4.3021,4.3033,4.3043,0,0,0,0,0,4.2863,4.2913,4.2892,4.2896,4.2904,4.2924,4.2925,4.2896,4.2864,4.2886,4.2871,4.2838,4.2883,4.2854,4.2858,4.2893,4.294,4.2946,4.2952,4.3017,4.3031,4.3043,0,0,0,0,0,0,4.2934,4.291,4.2887,4.2934,4.2932,4.2913,4.294,4.2912,4.2919,4.2912,4.2876,4.2874,4.2914,4.2908,4.2876,4.2951,4.2906,4.2913,4.2953,4.2966,4.2977,4.2977,4.2817,0,0,0,0,0,4.2955,4.2973,4.2951,4.2994,4.2994,4.2968,4.2976,4.2953,4.2949,4.2948,4.2936,4.2934,4.2947,4.2957,4.2968,4.3021,4.3017,4.3047,4.3058,4.3067,4.3073,4.3098,4.3111,4.2974,4.2974,4.2974,0,0,4.2999,4.2988,4.3002,4.3008,4.3004,4.3023,4.2968,4.2991,4.3004,4.2952,4.2984,4.2975,4.2971,4.3015,4.3033,4.301,4.311,4.3075,4.3082,4.3083,4.3106,4.3119,4.313,4.2978,4.2977,4.2977,0,0,4.3087,4.3082,4.3116,4.3113,4.3107,4.3089,4.3097,4.3083,4.3075,4.3106,4.3067,4.3084,4.3108,4.3106,4.3108,4.3196,4.3165,4.3201,4.3256,4.3282,4.3293,4.3302,4.3332,4.3343,4.3208,4.3208,4.3208,0,4.3142,4.3169,4.3138,4.3162,4.3166,4.312,4.3154,4.3152,4.3151,4.3154,4.3129,4.3157,4.3151,4.3193,4.3215,4.3219,4.3226,4.3201,4.3294,4.3303,4.3311,4.3339,4.335,4.3212,4.3211,4.3211,4.3211,0,4.3236,4.3256,4.3284,4.3282,4.329,4.332,4.3292,4.3303,4.3281,4.3266,4.3298,4.3289,4.3297,4.3306,4.3285,4.3345,4.333,4.33,4.3253,4.3329,4.3354,4.3365,4.3218,4.3217,4.3215,4.3214,0,0,4.3368,4.3348,4.3359,4.3357,4.3347,4.3362,4.339,4.3397,4.3406,4.3407,4.3428,4.345,4.3422,4.3424,4.3402,4.3425,4.3493,4.3392,4.3391,4.3409,4.3557,4.3578,4.3591,4.3474,4.3476,4.3477,4.3557,0,4.3451,4.3496,4.3468,4.3517,4.3534,4.349,4.3514,4.3511,4.3498,4.351,4.3496,4.3511,4.3474,4.3474,4.3495,4.3481,4.3522,4.3475,4.3492,4.3493,4.3492,4.3605,4.3627,4.3703,4.3567,4.3569,4.357,0,4.3554,4.3558,4.3608,4.3594,4.36,4.3622,4.3625,4.3638,4.3634,4.3622,4.3626,4.3598,4.3624,4.358,4.3614,4.3583,4.3589,4.3583,4.3585,4.3583,4.3534,4.3604,4.3727,4.3737,4.3586,4.3584,4.3583,0,4.3642,4.3661,4.3692,4.3693,4.3677,4.3693,4.3688,4.3681,4.3686,4.369,4.3694,4.3701,4.3705,4.3711,4.3686,4.3657,4.3724,4.3678,4.3714,4.3715,4.3728,4.3727,4.3851,4.3736,4.3736,4.3736,4.3736,0,4.3736,4.3768,4.3732,4.3751,4.3786,4.3754,4.3789,4.3779,4.3773,4.379,4.3754,4.377,4.3737,4.3751,4.3732,4.3762,4.3765,4.3756,4.375,4.3758,4.3759,4.3759,4.3753,4.3739,4.3738,4.3738,4.3737,0,4.384,4.3817,4.3848,4.3831,4.3827,4.3853,4.3839,4.3856,4.3841,4.3862,4.3866,4.3842,4.3856,4.3832,4.3843,4.383,4.3873,4.386,4.3874,4.3869,4.3905,4.3902,4.4032,4.4047,4.3925,4.3926,4.3927,0,4.39,4.3924,4.3909,4.3917,4.3913,4.3927,4.3932,4.3903,4.391,4.3906,4.3924,4.3934,4.3941,4.3965,4.3949,4.3957,4.3943,4.3988,4.3944,4.3951,4.3941,4.3939,4.394,4.3997,4.3998,4.3999,4.4,0,4.4009,4.3996,4.4005,4.401,4.4017,4.402,4.402,4.4029,4.3998,4.4008,4.4021,4.4026,4.4037,4.4048,4.4052,4.4046,4.4018,4.4015,4.4023,4.403,4.4036,4.4031,4.3896,4.4011,4.401,4.4009,4.4009,4.4008,4.4091,4.4109,4.4101,4.4112,4.4109,4.411,4.4124,4.4111,4.4121,4.4127,4.4109,4.4126,4.4121,4.4123,4.4121,4.4134,4.4114,4.4127,4.413,4.4133,4.4137,4.4036,4.4135,4.4135,4.4135,4.4134,4.4134,0,4.4197,4.4189,4.4199,4.42,4.4208,4.4181,4.418,4.4189,4.4204,4.4201,4.4208,4.4223,4.4233,4.4218,4.4225,4.4239,4.4226,4.4241,4.4239,4.4238,4.4156,4.4147,4.4252,4.4252,4.4252,4.4252,4.4252,4.4252,4.4252,4.428,4.4267,4.4293,4.4286,4.4301,4.4303,4.4303,4.43,4.4318,4.4326,4.4316,4.4308,4.4315,4.4323,4.4318,4.4322,4.4342,4.4332,4.4255,4.4244,4.4233,4.4224,4.4343,4.4343,4.4413,4.4413,4.4414]}]]